Weather observations for the past three days for
King Airport, St. Thomas
Imperial (Metric)
Date Time (ast) Wind (mph) Vis. (mi.) Weather Sky Cond. Temperature (ºF) Relative Humidity Wind Chill (°F) Heat Index (°F) Pressure Precipitation (in)
Air Dwpt 6 hour altimeter (in) sea level (mb) 1 hr 3 hr 6 hr
Max. Min.
17 18:53 SE 7 10.00 Fair CLR 84.2 78.8 84% 96 29.87 0.0
17 17:53 SE 6 10.00 Fair CLR 84.9 77 77% 95 29.87 1011.6
17 16:53 S 6 10.00 Fair CLR 86 79 80% 100 29.87 1011.4
17 15:53 SE 7 10.00 Fair CLR 86 79 80% 100 29.88 1011.8
17 14:53 SE 9 10.00 Partly Cloudy SCT030 86 79 80% 100 29.89 1012.1
17 13:53 SE 9 10.00 Partly Cloudy SCT030 86 79 87.1 80.1 80% 100 29.9 1012.5
17 12:53 SE 8 10.00 Fair CLR 86 80.6 84% 102 29.92 0.0
17 11:53 SE 8 10.00 A Few Clouds FEW030 86 79 80% 100 29.94 1013.8
17 10:53 SE 6 10.00 Partly Cloudy SCT030 84.9 80.1 85% 99 29.95 1014.2
17 09:53 SE 7 10.00 A Few Clouds FEW030 84 80.1 88% 97 29.95 1014.1
17 07:53 E 6 10.00 A Few Clouds FEW050 80.6 80.6 100% 89 29.94 0.0
17 06:53 E 5 10.00 Partly Cloudy SCT060 80.1 80.1 100% 87 29.94 1013.9
17 05:53 E 5 10.00 Partly Cloudy SCT065 78.1 78.1 100% 81 29.93 1013.4
17 04:53 NE 6 5.00 Light Rain Fog/Mist FEW017 BKN035 OVC100 75.2 75.2 100% 73 29.92 0.0
17 01:53 E 3 10.00 Fair CLR 80.6 78.8 94% 88 29.92 0.0
17 00:53 E 6 10.00 Fair CLR 81 79 94% 89 29.93 1013.6
16 23:53 E 5 10.00 Fair CLR 80.6 78.8 94% 88 29.96 0.0
16 22:53 E 6 10.00 Fair CLR 81 79 94% 89 29.97 1014.9
16 17:53 N 3 10.00 Mostly Cloudy FEW016 SCT036 BKN080 84 80.1 88% 97 29.95 1014.2
16 16:53 NW 7 10.00 Partly Cloudy FEW027 SCT036 86 80.6 84% 102 29.94 0.0
16 15:53 S 6 10.00 Partly Cloudy SCT030 87.8 78.8 75% 102 29.94 0.0
16 13:53 SW 6 10.00 Partly Cloudy SCT030 87.8 78.8 75% 102 29.96 0.0
16 12:53 SW 3 10.00 A Few Clouds FEW036 86 79 80% 100 29.97 1015.0
16 11:53 S 5 10.00 Partly Cloudy SCT030 86 80.6 84% 102 29.99 0.0
16 10:53 S 5 10.00 Partly Cloudy SCT030 86 80.6 84% 102 30 0.0
16 09:53 SE 8 10.00 Partly Cloudy FEW023 SCT047 84.2 80.6 89% 98 30 0.0
16 07:53 S 7 10.00 Partly Cloudy SCT023 SCT036 82.4 80.6 94% 94 29.99 0.0
16 06:53 E 5 10.00 A Few Clouds FEW025 82 80.1 94% 93 29.99 1015.4
16 04:53 E 3 10.00 Partly Cloudy FEW070 SCT085 80.6 80.6 100% 89 29.97 0.0
16 03:53 E 3 10.00 Partly Cloudy FEW022 SCT070 80.6 80.6 100% 89 29.96 0.0
16 02:53 E 5 10.00 Mostly Cloudy FEW024 FEW049 BKN060 80.6 78.8 94% 88 29.97 0.0
16 01:53 E 6 10.00 Partly Cloudy SCT080 80.6 78.8 94% 88 29.97 0.0
15 23:53 E 6 10.00 Mostly Cloudy FEW024 SCT033 BKN070 82.4 80.6 94% 94 30 0.0
15 22:53 E 6 10.00 A Few Clouds FEW023 FEW036 82.9 79 88% 94 30.01 1016.1
15 21:53 E 7 10.00 Fair CLR 82.4 78.8 89% 92 30 0.0
15 20:53 E 7 10.00 Fair CLR 82.4 78.8 89% 92 29.99 0.0
15 19:53 E 7 10.00 Fair CLR 84.2 78.8 84% 96 29.98 0.0
15 18:53 SE 7 10.00 Partly Cloudy FEW023 SCT090 84.2 80.6 89% 98 29.98 0.0
15 17:53 SE 6 10.00 A Few Clouds FEW020 84.9 79 82% 98 29.96 1014.7
15 16:53 S 6 10.00 A Few Clouds FEW075 84.9 79 82% 98 29.95 1014.3
15 14:53 S 8 10.00 Partly Cloudy SCT025 86 78.8 79% 99 29.96 0.0
15 13:53 S 10 10.00 Partly Cloudy SCT030 86 80.1 88 84 83% 101 29.98 1015.2
15 12:53 SE 6 10.00 Light Rain FEW025 84.2 80.6 89% 98 29.99 0.0
15 11:53 S 7 10.00 Partly Cloudy SCT025 87.8 80.6 79% 105 30.01 0.0
15 10:53 S 9 10.00 Partly Cloudy FEW023 SCT027 86 80.6 84% 102 30.01 0.0
15 09:53 S 8 10.00 A Few Clouds FEW022 86 80.1 83% 101 30.01 1016.4
15 08:53 S 8 10.00 A Few Clouds FEW030 84.2 80.6 89% 98 30.01 0.0
15 07:53 S 6 10.00 Partly Cloudy SCT023 SCT027 84.2 80.6 89% 98 30.01 0.0
15 06:53 SE 9 10.00 A Few Clouds FEW019 82.4 80.6 94% 94 29.99 0.0
15 05:53 E 5 10.00 Fair CLR 80.6 80.6 100% 89 29.98 0.0
15 04:53 E 5 10.00 Partly Cloudy SCT019 SCT026 80.1 80.1 100% 87 29.97 1014.9
15 01:53 E 5 10.00 Fair CLR 80.6 78.8 94% 88 29.95 0.0
15 00:53 E 9 10.00 Fair CLR 81 79 94% 89 29.97 1014.7
14 23:53 E 8 10.00 A Few Clouds FEW023 82.4 78.8 89% 92 29.97 0.0
14 22:53 E 6 10.00 Fair CLR 82 79 90% 92 29.98 1015.2
14 21:53 E 7 10.00 A Few Clouds FEW025 FEW033 82.4 78.8 89% 92 29.98 0.0
14 20:53 E 6 10.00 Fair CLR 82.4 78.8 89% 92 29.96 0.0
14 19:53 NE 7 10.00 Fair CLR 82.9 77 88 82.9 82% 92 29.94 1014.0
Date Time (ast) Wind (mph) Vis. (mi.) Weather Sky Cond. Air Dwpt Max. Min. Relative Humidity Wind Chill (°F) Heat Index (°F) altimeter (in) sea level (mb) 1 hr 3 hr 6 hr
6 hour
Temperature (ºF) Pressure Precipitation (in)